,,Stat6,,Stat2,,Stat8,,Stat9,,Stat10,,Wind1,,Wind1,
time,status,PA1M_AVG,status,PR1M_SUM,status,RH1M_AVG,status,SR1M_AVG,status,TA1M_AVG,status,W1dAve1m,status,W1sAve1m,
2005-01-26, 00:00:00,VALID,916.76,VALID,0,VALID,93.4566,VALID,-0.0339617,VALID,18.614,VALID,56,VALID,0.679688,
2005-01-26, 00:01:00,VALID,916.759,VALID,0,VALID,93.9767,VALID,-0.0509425,VALID,18.5169,VALID,56,VALID,0.69122,
2005-01-26, 00:02:00,VALID,916.766,VALID,0,VALID,94.5603,VALID,-0.0169808,VALID,18.4588,VALID,56,VALID,0.680078,
2005-01-26, 00:03:00,VALID,916.779,VALID,0,VALID,94.7345,VALID,-0.0339617,VALID,18.4104,VALID,56,VALID,0.686198,
2005-01-26, 00:04:00,VALID,916.786,VALID,0,VALID,95.5293,VALID,-0.0339617,VALID,18.4039,VALID,56,VALID,0.596354,
2005-01-26, 00:05:00,VALID,916.792,VALID,0,VALID,95.4034,VALID,-0.0509425,VALID,18.4726,VALID,56,VALID,0.574033,
2005-01-26, 00:06:00,VALID,916.799,VALID,0,VALID,95.3525,VALID,-0.0169808,VALID,18.5042,VALID,56,VALID,0.511619,
2005-01-26, 00:07:00,VALID,916.801,VALID,0,VALID,95.3207,VALID,-0.0339617,VALID,18.5757,VALID,57,VALID,0.580543,
2005-01-26, 00:08:00,VALID,916.797,VALID,0,VALID,94.9939,VALID,-0.0509425,VALID,18.6597,VALID,70,VALID,0.533537,
2005-01-26, 00:09:00,VALID,916.788,VALID,0,VALID,94.3518,VALID,-0.0339617,VALID,18.7625,VALID,70,VALID,0.498512,
2005-01-26, 00:10:00,VALID,916.793,VALID,0,VALID,93.0357,VALID,-0.0169808,VALID,18.8176,VALID,70,VALID,0.308594,
2005-01-26, 00:11:00,VALID,916.784,VALID,0,VALID,91.5479,VALID,-0.0509425,VALID,18.6793,VALID,44,VALID,0.670922,
2005-01-26, 00:12:00,VALID,916.793,VALID,0,VALID,94.2831,VALID,-0.0339617,VALID,18.5337,VALID,19,VALID,0.961496,
2005-01-26, 00:13:00,VALID,916.788,VALID,0,VALID,95.5102,VALID,-0.0679233,VALID,18.5335,VALID,18,VALID,0.768783,
2005-01-26, 00:14:00,VALID,916.784,VALID,0,VALID,95.4428,VALID,-0.0679233,VALID,18.5111,VALID,18,VALID,0.643973,
2005-01-26, 00:15:00,VALID,916.774,VALID,0,VALID,95.3449,VALID,-0.0169808,VALID,18.4652,VALID,18,VALID,0.704649,
2005-01-26, 00:16:00,VALID,916.758,VALID,0,VALID,95.5178,VALID,-0.0849042,VALID,18.4175,VALID,18,VALID,0.680831,
2005-01-26, 00:17:00,VALID,916.736,VALID,0,VALID,95.6679,VALID,-0.0679233,VALID,18.3594,VALID,24,VALID,0.620808,
2005-01-26, 00:18:00,VALID,916.722,VALID,0,VALID,96.4334,VALID,-0.0849042,VALID,18.3467,VALID,46,VALID,0.726563,
2005-01-26, 00:19:00,VALID,916.72,VALID,0,VALID,96.5974,VALID,-0.0509425,VALID,18.3723,VALID,90,VALID,0.954861,
2005-01-26, 00:20:00,VALID,916.694,VALID,0,VALID,96.4703,VALID,-0.0339617,VALID,18.3949,VALID,94,VALID,0.861662,
2005-01-26, 00:21:00,VALID,916.675,VALID,0,VALID,96.1829,VALID,-0.0509425,VALID,18.3788,VALID,98,VALID,0.754167,
2005-01-26, 00:22:00,VALID,916.657,VALID,0,VALID,96.0265,VALID,-0.0339617,VALID,18.3719,VALID,98,VALID,0.620844,
2005-01-26, 00:23:00,VALID,916.644,VALID,0,VALID,94.9596,VALID,-0.0169808,VALID,18.3204,VALID,99,VALID,0.505145,
2005-01-26, 00:24:00,VALID,916.631,VALID,0,VALID,95.1872,VALID,-0.0509425,VALID,18.2436,VALID,101,VALID,0.944141,
2005-01-26, 00:25:00,VALID,916.615,VALID,0,VALID,96.3507,VALID,-0.0679233,VALID,18.2141,VALID,99,VALID,1.06194,
2005-01-26, 00:26:00,VALID,916.584,VALID,0,VALID,95.7188,VALID,-0.0849042,VALID,18.2144,VALID,90,VALID,1.18807,
2005-01-26, 00:27:00,VALID,916.57,VALID,0,VALID,95.7429,VALID,-0.0509425,VALID,18.1629,VALID,91,VALID,1.21911,
2005-01-26, 00:28:00,VALID,916.538,VALID,0,VALID,96.4283,VALID,-0.0509425,VALID,18.1788,VALID,92,VALID,0.967076,
2005-01-26, 00:29:00,VALID,916.521,VALID,0,VALID,96.118,VALID,-0.0509425,VALID,18.218,VALID,93,VALID,0.907738,
2005-01-26, 00:30:00,VALID,916.505,VALID,0,VALID,96.2745,VALID,-0.0849042,VALID,18.2404,VALID,98,VALID,1.30124,
2005-01-26, 00:31:00,VALID,916.5,VALID,0,VALID,95.809,VALID,-0.0509425,VALID,18.2858,VALID,101,VALID,0.927083,
2005-01-26, 00:32:00,VALID,916.515,VALID,0,VALID,95.411,VALID,-0.0509425,VALID,18.2727,VALID,110,VALID,0.628452,
2005-01-26, 00:33:00,VALID,916.511,VALID,0,VALID,95.4988,VALID,-0.0849042,VALID,18.2307,VALID,112,VALID,0.687891,
2005-01-26, 00:34:00,VALID,916.515,VALID,0,VALID,96.0405,VALID,-0.0509425,VALID,18.2077,VALID,112,VALID,0.729651,
2005-01-26, 00:35:00,VALID,916.522,VALID,0,VALID,96.4118,VALID,-0.0679233,VALID,18.2174,VALID,111,VALID,0.790799,
2005-01-26, 00:36:00,VALID,916.507,VALID,0,VALID,96.5809,VALID,-0.0509425,VALID,18.2402,VALID,101,VALID,0.895349,
2005-01-26, 00:37:00,VALID,916.48,VALID,0,VALID,96.4957,VALID,-0.0679233,VALID,18.2662,VALID,98,VALID,0.825945,
2005-01-26, 00:38:00,VALID,916.434,VALID,0,VALID,96.4054,VALID,-0.0339617,VALID,18.2789,VALID,98,VALID,0.845703,
2005-01-26, 00:39:00,VALID,916.418,VALID,0,VALID,96.5008,VALID,-0.101885,VALID,18.2824,VALID,98,VALID,0.837806,
2005-01-26, 00:40:00,VALID,916.386,VALID,0,VALID,96.6191,VALID,-0.0509425,VALID,18.2854,VALID,99,VALID,0.85026,
2005-01-26, 00:41:00,VALID,916.352,VALID,0,VALID,96.6076,VALID,-0.0339617,VALID,18.2886,VALID,104,VALID,0.948918,
2005-01-26, 00:42:00,VALID,916.341,VALID,0,VALID,96.6419,VALID,-0.0169808,VALID,18.2722,VALID,108,VALID,0.914244,
2005-01-26, 00:43:00,VALID,916.336,VALID,0,VALID,96.628,VALID,-0.0679233,VALID,18.2759,VALID,113,VALID,1.00236,
2005-01-26, 00:44:00,VALID,916.324,VALID,0,VALID,96.628,VALID,-0.0339617,VALID,18.263,VALID,116,VALID,1.04961,
2005-01-26, 00:45:00,VALID,916.315,VALID,0,VALID,96.8403,VALID,-0.0339617,VALID,18.2499,VALID,116,VALID,0.983681,
2005-01-26, 00:46:00,VALID,916.319,VALID,0,VALID,96.7017,VALID,-0.0509425,VALID,18.2275,VALID,118,VALID,1.12012,
2005-01-26, 00:47:00,VALID,916.32,VALID,0,VALID,97.0717,VALID,-0.0339617,VALID,18.234,VALID,116,VALID,1.34933,
2005-01-26, 00:48:00,VALID,916.312,VALID,0,VALID,96.9306,VALID,-0.0169808,VALID,18.2891,VALID,114,VALID,1.59609,
2005-01-26, 00:49:00,VALID,916.285,VALID,0,VALID,96.2134,VALID,-0.0169808,VALID,18.373,VALID,107,VALID,1.29121,
2005-01-26, 00:50:00,VALID,916.261,VALID,0,VALID,95.6361,VALID,-0.0679233,VALID,18.4081,VALID,112,VALID,1.3054,
2005-01-26, 00:51:00,VALID,916.248,VALID,0,VALID,95.1796,VALID,-0.0339617,VALID,18.4406,VALID,114,VALID,1.22311,
2005-01-26, 00:52:00,VALID,916.232,VALID,0,VALID,95.102,VALID,-0.0679233,VALID,18.4862,VALID,111,VALID,1.62148,
2005-01-26, 00:53:00,VALID,916.211,VALID,0,VALID,94.7078,VALID,-0.0679233,VALID,18.5568,VALID,105,VALID,1.19422,
2005-01-26, 00:54:00,VALID,916.197,VALID,0,VALID,94.3645,VALID,-0.0679233,VALID,18.6306,VALID,108,VALID,1.38472,
2005-01-26, 00:55:00,VALID,916.193,VALID,0,VALID,93.9894,VALID,-0.0509425,VALID,18.7093,VALID,113,VALID,1.37556,
2005-01-26, 00:56:00,VALID,916.184,VALID,0,VALID,93.7948,VALID,-0.0679233,VALID,18.7607,VALID,103,VALID,1.25191,
2005-01-26, 00:57:00,VALID,916.177,VALID,0,VALID,93.5672,VALID,-0.0509425,VALID,18.796,VALID,104,VALID,1.39472,
2005-01-26, 00:58:00,VALID,916.164,VALID,0,VALID,93.3727,VALID,-0.0679233,VALID,18.8149,VALID,113,VALID,1.31341,
2005-01-26, 00:59:00,VALID,916.139,VALID,0,VALID,93.3739,VALID,-0.101885,VALID,18.8179,VALID,123,VALID,1.04705,
2005-01-26, 01:00:00,VALID,916.123,VALID,0,VALID,93.3727,VALID,-0.0509425,VALID,18.8414,VALID,121,VALID,1.12773,
2005-01-26, 01:01:00,VALID,916.125,VALID,0,VALID,93.318,VALID,-0.0849042,VALID,18.8606,VALID,119,VALID,0.94112,
2005-01-26, 01:02:00,VALID,916.123,VALID,0,VALID,93.2964,VALID,-0.0679233,VALID,18.873,VALID,111,VALID,1.18565,
2005-01-26, 01:03:00,VALID,916.127,VALID,0,VALID,93.229,VALID,-0.0339617,VALID,18.8892,VALID,101,VALID,1.25037,
2005-01-26, 01:04:00,VALID,916.12,VALID,0,VALID,93.2391,VALID,-0.0169808,VALID,18.9051,VALID,107,VALID,1.14993,
2005-01-26, 01:05:00,VALID,916.12,VALID,0,VALID,93.0382,VALID,-0.0339617,VALID,18.9281,VALID,102,VALID,1.21246,
2005-01-26, 01:06:00,VALID,916.112,VALID,0,VALID,92.9797,VALID,-0.0679233,VALID,18.9249,VALID,92,VALID,1.14774,
2005-01-26, 01:07:00,VALID,916.106,VALID,0,VALID,92.8856,VALID,-0.0339617,VALID,18.9448,VALID,94,VALID,1.49219,
2005-01-26, 01:08:00,VALID,916.089,VALID,0,VALID,92.7801,VALID,-0.0849042,VALID,18.9344,VALID,110,VALID,1.36152,
2005-01-26, 01:09:00,VALID,916.078,VALID,0,VALID,92.6313,VALID,-0.0509425,VALID,18.9346,VALID,100,VALID,1.35762,
2005-01-26, 01:10:00,VALID,916.075,VALID,0,VALID,92.4355,VALID,-0.0509425,VALID,18.9182,VALID,106,VALID,1.16188,
2005-01-26, 01:11:00,VALID,916.065,VALID,0,VALID,92.2053,VALID,-0.101885,VALID,18.9155,VALID,112,VALID,0.889205,
2005-01-26, 01:12:00,VALID,916.046,VALID,0,VALID,92.2473,VALID,-0.0849042,VALID,18.9192,VALID,135,VALID,1.63554,
2005-01-26, 01:13:00,VALID,916.04,VALID,0,VALID,92.0794,VALID,-0.0849042,VALID,18.9413,VALID,132,VALID,1.65004,
2005-01-26, 01:14:00,VALID,916.031,VALID,0,VALID,91.9459,VALID,-0.0849042,VALID,18.98,VALID,137,VALID,1.99498,
2005-01-26, 01:15:00,VALID,916.01,VALID,0,VALID,91.8124,VALID,-0.0339617,VALID,18.9989,VALID,134,VALID,1.64753,
2005-01-26, 01:16:00,VALID,916.009,VALID,0,VALID,91.5924,VALID,-0.101885,VALID,19.0282,VALID,122,VALID,1.50417,
2005-01-26, 01:17:00,VALID,916.004,VALID,0,VALID,91.4411,VALID,-0.0509425,VALID,19.0444,VALID,121,VALID,1.44364,
2005-01-26, 01:18:00,VALID,915.982,VALID,0,VALID,91.2351,VALID,-0.0509425,VALID,19.0672,VALID,112,VALID,1.34909,
2005-01-26, 01:19:00,VALID,915.979,VALID,0,VALID,91.0838,VALID,-0.0509425,VALID,19.0797,VALID,111,VALID,1.2024,
2005-01-26, 01:20:00,VALID,915.965,VALID,0,VALID,91.155,VALID,-0.0339617,VALID,19.0697,VALID,99,VALID,1.46566,
2005-01-26, 01:21:00,VALID,915.958,VALID,0,VALID,91.2084,VALID,-0.0849042,VALID,19.0794,VALID,101,VALID,1.38953,
2005-01-26, 01:22:00,VALID,915.957,VALID,0,VALID,91.1041,VALID,-0.0679233,VALID,19.0956,VALID,126,VALID,1.55538,
2005-01-26, 01:23:00,VALID,915.94,VALID,0,VALID,90.879,VALID,-0.0509425,VALID,19.1477,VALID,115,VALID,1.1291,
2005-01-26, 01:24:00,VALID,915.942,VALID,0,VALID,90.8587,VALID,-0.0339617,VALID,19.1542,VALID,110,VALID,0.936967,
2005-01-26, 01:25:00,VALID,915.923,VALID,0,VALID,90.907,VALID,-0.101885,VALID,19.1447,VALID,112,VALID,1.03594,
2005-01-26, 01:26:00,VALID,915.907,VALID,0,VALID,91.141,VALID,-0.0679233,VALID,19.112,VALID,116,VALID,0.945313,
2005-01-26, 01:27:00,VALID,915.903,VALID,0,VALID,91.2402,VALID,-0.0849042,VALID,19.0896,VALID,124,VALID,1.11254,
2005-01-26, 01:28:00,VALID,915.886,VALID,0,VALID,91.277,VALID,-0.0849042,VALID,19.0536,VALID,128,VALID,1.26582,
2005-01-26, 01:29:00,VALID,915.873,VALID,0,VALID,91.2376,VALID,-0.0509425,VALID,19.0345,VALID,107,VALID,1.30905,
2005-01-26, 01:30:00,VALID,915.852,VALID,0,VALID,91.3635,VALID,-0.0509425,VALID,19.0086,VALID,100,VALID,1.16591,
2005-01-26, 01:31:00,VALID,915.853,VALID,0,VALID,91.4576,VALID,-0.0679233,VALID,18.9664,VALID,98,VALID,1.39512,
2005-01-26, 01:32:00,VALID,915.85,VALID,0,VALID,91.5886,VALID,-0.0679233,VALID,18.9346,VALID,94,VALID,1.25819,
2005-01-26, 01:33:00,VALID,915.836,VALID,0,VALID,91.9523,VALID,-0.0679233,VALID,18.8693,VALID,101,VALID,1.11528,
2005-01-26, 01:34:00,VALID,915.826,VALID,0,VALID,92.4151,VALID,-0.0169808,VALID,18.7953,VALID,117,VALID,1.35975,
2005-01-26, 01:35:00,VALID,915.814,VALID,0,VALID,92.5092,VALID,0,VALID,18.7434,VALID,107,VALID,1.00572,
2005-01-26, 01:36:00,VALID,915.81,VALID,0,VALID,92.7101,VALID,0.0169808,VALID,18.6982,VALID,101,VALID,0.956473,
2005-01-26, 01:37:00,VALID,915.816,VALID,0,VALID,92.9441,VALID,0.0169808,VALID,18.6723,VALID,115,VALID,0.998183,
2005-01-26, 01:38:00,VALID,915.808,VALID,0,VALID,92.8945,VALID,-0.0169808,VALID,18.6532,VALID,85,VALID,0.965216,
2005-01-26, 01:39:00,VALID,915.804,VALID,0,VALID,92.9797,VALID,0,VALID,18.6269,VALID,95,VALID,1.23095,
2005-01-26, 01:40:00,VALID,915.789,VALID,0,VALID,93.0319,VALID,-0.0339617,VALID,18.6378,VALID,104,VALID,1.25254,
2005-01-26, 01:41:00,VALID,915.8,VALID,0,VALID,93.0217,VALID,-0.0339617,VALID,18.6244,VALID,121,VALID,0.999219,
2005-01-26, 01:42:00,VALID,915.805,VALID,0,VALID,93.0255,VALID,-0.0169808,VALID,18.6239,VALID,135,VALID,0.862614,
2005-01-26, 01:43:00,VALID,915.825,VALID,0,VALID,93.1082,VALID,-0.0169808,VALID,18.6244,VALID,122,VALID,0.708333,
2005-01-26, 01:44:00,VALID,915.839,VALID,0,VALID,93.0459,VALID,0,VALID,18.6209,VALID,115,VALID,0.14098,
2005-01-26, 01:45:00,VALID,915.843,VALID,0,VALID,93.1171,VALID,0,VALID,18.5919,VALID,145,VALID,0.697493,
2005-01-26, 01:46:00,VALID,915.85,VALID,0,VALID,93.2124,VALID,0,VALID,18.5621,VALID,157,VALID,0.763529,
2005-01-26, 01:47:00,VALID,915.864,VALID,0,VALID,93.5863,VALID,0,VALID,18.563,VALID,151,VALID,1.12427,
2005-01-26, 01:48:00,VALID,915.861,VALID,0,VALID,93.6244,VALID,0,VALID,18.5531,VALID,153,VALID,0.849516,
2005-01-26, 01:49:00,VALID,915.85,VALID,0,VALID,93.7084,VALID,-0.0169808,VALID,18.5467,VALID,149,VALID,1.24774,
2005-01-26, 01:50:00,VALID,915.834,VALID,0,VALID,93.6677,VALID,0,VALID,18.5337,VALID,142,VALID,0.952947,
2005-01-26, 01:51:00,VALID,915.809,VALID,0,VALID,93.6753,VALID,0,VALID,18.5075,VALID,136,VALID,1.08757,
2005-01-26, 01:52:00,VALID,915.785,VALID,0,VALID,93.8444,VALID,-0.0169808,VALID,18.4918,VALID,117,VALID,1.04924,
2005-01-26, 01:53:00,VALID,915.77,VALID,0,VALID,93.8419,VALID,0,VALID,18.4756,VALID,110,VALID,0.939918,
2005-01-26, 01:54:00,VALID,915.752,VALID,0,VALID,93.969,VALID,0,VALID,18.4692,VALID,116,VALID,1.15513,
2005-01-26, 01:55:00,VALID,915.748,VALID,0,VALID,93.6918,VALID,0,VALID,18.4819,VALID,121,VALID,1.16531,
2005-01-26, 01:56:00,VALID,915.726,VALID,0,VALID,93.3014,VALID,0,VALID,18.5211,VALID,120,VALID,1.42842,
2005-01-26, 01:57:00,VALID,915.734,VALID,0,VALID,92.6504,VALID,-0.0169808,VALID,18.5723,VALID,103,VALID,1.30051,
2005-01-26, 01:58:00,VALID,915.73,VALID,0,VALID,92.1354,VALID,0,VALID,18.65,VALID,112,VALID,1.53977,
2005-01-26, 01:59:00,VALID,915.704,VALID,0,VALID,91.6509,VALID,0,VALID,18.7275,VALID,119,VALID,1.50986,
2005-01-26, 02:00:00,VALID,915.691,VALID,0,VALID,91.3406,VALID,0,VALID,18.7918,VALID,104,VALID,1.20167,
2005-01-26, 02:01:00,VALID,915.662,VALID,0,VALID,91.1804,VALID,0,VALID,18.8439,VALID,103,VALID,1.36291,
2005-01-26, 02:02:00,VALID,915.649,VALID,0,VALID,91.1219,VALID,0,VALID,18.879,VALID,101,VALID,1.49929,
2005-01-26, 02:03:00,VALID,915.633,VALID,0,VALID,90.9731,VALID,0,VALID,18.8956,VALID,95,VALID,1.30332,
2005-01-26, 02:04:00,VALID,915.616,VALID,0,VALID,90.9515,VALID,0.0169808,VALID,18.8924,VALID,102,VALID,1.43697,
2005-01-26, 02:05:00,VALID,915.611,VALID,0,VALID,90.977,VALID,0,VALID,18.8825,VALID,100,VALID,1.52998,
2005-01-26, 02:06:00,VALID,915.599,VALID,0,VALID,90.9312,VALID,0,VALID,18.8792,VALID,102,VALID,1.68895,
2005-01-26, 02:07:00,VALID,915.603,VALID,0,VALID,90.7036,VALID,-0.0169808,VALID,18.9182,VALID,115,VALID,1.508,
2005-01-26, 02:08:00,VALID,915.58,VALID,0,VALID,90.4823,VALID,0,VALID,18.9565,VALID,100,VALID,1.07156,
2005-01-26, 02:09:00,VALID,915.575,VALID,0,VALID,90.4467,VALID,0,VALID,18.9828,VALID,101,VALID,1.24238,
2005-01-26, 02:10:00,VALID,915.546,VALID,0,VALID,90.5751,VALID,0.0169808,VALID,18.9724,VALID,110,VALID,1.68973,
2005-01-26, 02:11:00,VALID,915.53,VALID,0,VALID,90.5433,VALID,0,VALID,18.9858,VALID,115,VALID,1.43693,
2005-01-26, 02:12:00,VALID,915.499,VALID,0,VALID,90.701,VALID,0,VALID,18.9759,VALID,119,VALID,0.905887,
2005-01-26, 02:13:00,VALID,915.487,VALID,0,VALID,90.8994,VALID,0.0339617,VALID,18.9634,VALID,122,VALID,0.910689,
2005-01-26, 02:14:00,VALID,915.471,VALID,0,VALID,91.1829,VALID,0.0169808,VALID,18.914,VALID,121,VALID,1.07385,
2005-01-26, 02:15:00,VALID,915.459,VALID,0,VALID,91.3762,VALID,0,VALID,18.8725,VALID,100,VALID,0.952363,
2005-01-26, 02:16:00,VALID,915.469,VALID,0,VALID,91.553,VALID,0,VALID,18.8402,VALID,107,VALID,1.04439,
2005-01-26, 02:17:00,VALID,915.461,VALID,0,VALID,91.5759,VALID,0.0169808,VALID,18.8013,VALID,129,VALID,1.15825,
2005-01-26, 02:18:00,VALID,915.451,VALID,0,VALID,91.7018,VALID,0,VALID,18.7881,VALID,146,VALID,1.16332,
2005-01-26, 02:19:00,VALID,915.449,VALID,0,VALID,91.6522,VALID,0.0169808,VALID,18.8013,VALID,132,VALID,1.33389,
2005-01-26, 02:20:00,VALID,915.42,VALID,0,VALID,91.5899,VALID,0.0169808,VALID,18.8343,VALID,137,VALID,1.52827,
2005-01-26, 02:21:00,VALID,915.412,VALID,0,VALID,91.4602,VALID,0.0169808,VALID,18.8536,VALID,127,VALID,1.42894,
2005-01-26, 02:22:00,VALID,915.402,VALID,0,VALID,91.2847,VALID,0,VALID,18.8631,VALID,127,VALID,1.52253,
2005-01-26, 02:23:00,VALID,915.394,VALID,0,VALID,91.0571,VALID,0.0339617,VALID,18.8725,VALID,118,VALID,1.34195,
2005-01-26, 02:24:00,VALID,915.386,VALID,0,VALID,91.1168,VALID,0,VALID,18.8787,VALID,123,VALID,1.39317,
2005-01-26, 02:25:00,VALID,915.373,VALID,0,VALID,90.9795,VALID,0.0169808,VALID,18.9048,VALID,96,VALID,1.46513,
2005-01-26, 02:26:00,VALID,915.375,VALID,0,VALID,90.6489,VALID,-0.0169808,VALID,18.9371,VALID,104,VALID,1.875,
2005-01-26, 02:27:00,VALID,915.373,VALID,0,VALID,90.1669,VALID,0,VALID,18.9985,VALID,102,VALID,1.71532,
2005-01-26, 02:28:00,VALID,915.363,VALID,0,VALID,89.8478,VALID,-0.0169808,VALID,19.0797,VALID,98,VALID,1.22465,
2005-01-26, 02:29:00,VALID,915.351,VALID,0,VALID,89.76,VALID,0,VALID,19.1082,VALID,111,VALID,1.73921,
2005-01-26, 02:30:00,VALID,915.344,VALID,0,VALID,89.582,VALID,0,VALID,19.1276,VALID,102,VALID,1.39317,
2005-01-26, 02:31:00,VALID,915.33,VALID,0,VALID,89.4052,VALID,0,VALID,19.1405,VALID,103,VALID,1.84059,
2005-01-26, 02:32:00,VALID,915.332,VALID,0,VALID,89.3887,VALID,0,VALID,19.1567,VALID,91,VALID,1.50019,
2005-01-26, 02:33:00,VALID,915.332,VALID,0,VALID,89.3531,VALID,0,VALID,19.1502,VALID,107,VALID,1.99714,
2005-01-26, 02:34:00,VALID,915.328,VALID,0,VALID,89.1853,VALID,0.0169808,VALID,19.182,VALID,110,VALID,1.48514,
2005-01-26, 02:35:00,VALID,915.316,VALID,0,VALID,89.2323,VALID,-0.0509425,VALID,19.1892,VALID,100,VALID,1.47493,
2005-01-26, 02:36:00,VALID,915.31,VALID,0,VALID,89.2959,VALID,-0.0339617,VALID,19.1867,VALID,113,VALID,1.8457,
2005-01-26, 02:37:00,VALID,915.289,VALID,0,VALID,89.2972,VALID,-0.0339617,VALID,19.183,VALID,128,VALID,1.79833,
2005-01-26, 02:38:00,VALID,915.292,VALID,0,VALID,89.2221,VALID,-0.0169808,VALID,19.1793,VALID,122,VALID,1.59542,
2005-01-26, 02:39:00,VALID,915.288,VALID,0,VALID,89.1992,VALID,-0.0339617,VALID,19.1865,VALID,114,VALID,1.10347,
2005-01-26, 02:40:00,VALID,915.293,VALID,0,VALID,89.3022,VALID,-0.0339617,VALID,19.1639,VALID,111,VALID,1.29395,
2005-01-26, 02:41:00,VALID,915.277,VALID,0,VALID,89.3379,VALID,-0.0679233,VALID,19.1507,VALID,129,VALID,1.66597,
2005-01-26, 02:42:00,VALID,915.262,VALID,0,VALID,89.2514,VALID,-0.0169808,VALID,19.1673,VALID,135,VALID,1.19459,
2005-01-26, 02:43:00,VALID,915.256,VALID,0,VALID,89.2603,VALID,-0.0509425,VALID,19.1631,VALID,108,VALID,1.7311,
2005-01-26, 02:44:00,VALID,915.24,VALID,0,VALID,89.4052,VALID,-0.0169808,VALID,19.1604,VALID,108,VALID,1.64009,
2005-01-26, 02:45:00,VALID,915.208,VALID,0,VALID,89.5311,VALID,-0.0509425,VALID,19.1244,VALID,129,VALID,1.4098,
2005-01-26, 02:46:00,VALID,915.188,VALID,0,VALID,89.6532,VALID,-0.0679233,VALID,19.105,VALID,112,VALID,1.51804,
2005-01-26, 02:47:00,VALID,915.181,VALID,0,VALID,89.6914,VALID,-0.0339617,VALID,19.0956,VALID,94,VALID,1.38472,
2005-01-26, 02:48:00,VALID,915.151,VALID,0,VALID,89.7804,VALID,-0.0509425,VALID,19.0864,VALID,102,VALID,1.4288,
2005-01-26, 02:49:00,VALID,915.136,VALID,0,VALID,90.0131,VALID,-0.0339617,VALID,19.0474,VALID,106,VALID,1.61179,
2005-01-26, 02:50:00,VALID,915.103,VALID,0,VALID,90.1339,VALID,-0.0169808,VALID,19.0245,VALID,102,VALID,1.87138,
2005-01-26, 02:51:00,VALID,915.087,VALID,0,VALID,90.2305,VALID,0,VALID,19.0052,VALID,89,VALID,1.13772,
2005-01-26, 02:52:00,VALID,915.063,VALID,0,VALID,90.5497,VALID,-0.0169808,VALID,18.9701,VALID,81,VALID,1.36504,
2005-01-26, 02:53:00,VALID,915.049,VALID,0,VALID,90.7786,VALID,-0.0339617,VALID,18.9242,VALID,90,VALID,1.58929,
2005-01-26, 02:54:00,VALID,915.017,VALID,0,VALID,90.8918,VALID,-0.0339617,VALID,18.8787,VALID,97,VALID,1.44062,
2005-01-26, 02:55:00,VALID,915.002,VALID,0,VALID,90.9706,VALID,-0.0169808,VALID,18.8499,VALID,84,VALID,1.53577,
2005-01-26, 02:56:00,VALID,914.996,VALID,0,VALID,91.0774,VALID,-0.0509425,VALID,18.8338,VALID,109,VALID,1.4213,
2005-01-26, 02:57:00,VALID,914.998,VALID,0,VALID,91.2071,VALID,-0.0339617,VALID,18.8243,VALID,100,VALID,1.47414,
2005-01-26, 02:58:00,VALID,914.985,VALID,0,VALID,91.2503,VALID,-0.0679233,VALID,18.8017,VALID,76,VALID,2.17207,
2005-01-26, 02:59:00,VALID,914.992,VALID,0,VALID,91.1715,VALID,-0.0679233,VALID,18.8248,VALID,89,VALID,1.63735,
2005-01-26, 03:00:00,VALID,914.995,VALID,0,VALID,91.1562,VALID,-0.0169808,VALID,18.8368,VALID,105,VALID,1.77507,
2005-01-26, 03:01:00,VALID,914.977,VALID,0,VALID,91.1003,VALID,-0.0509425,VALID,18.8402,VALID,91,VALID,1.42283,
2005-01-26, 03:02:00,VALID,914.967,VALID,0,VALID,91.1308,VALID,-0.0509425,VALID,18.8372,VALID,99,VALID,1.91279,
2005-01-26, 03:03:00,VALID,914.927,VALID,0,VALID,91.1359,VALID,-0.0169808,VALID,18.831,VALID,113,VALID,1.80669,
2005-01-26, 03:04:00,VALID,914.915,VALID,0,VALID,91.0164,VALID,-0.0679233,VALID,18.8437,VALID,119,VALID,1.42522,
2005-01-26, 03:05:00,VALID,914.901,VALID,0,VALID,90.7951,VALID,-0.0339617,VALID,18.8862,VALID,118,VALID,1.98301,
2005-01-26, 03:06:00,VALID,914.891,VALID,0,VALID,90.6692,VALID,-0.0339617,VALID,18.9048,VALID,94,VALID,1.40347,
2005-01-26, 03:07:00,VALID,914.866,VALID,0,VALID,90.6629,VALID,-0.0339617,VALID,18.9053,VALID,104,VALID,1.20499,
2005-01-26, 03:08:00,VALID,914.854,VALID,0,VALID,90.64,VALID,-0.0509425,VALID,18.8984,VALID,111,VALID,1.42852,
2005-01-26, 03:09:00,VALID,914.838,VALID,0,VALID,90.7023,VALID,-0.0169808,VALID,18.8887,VALID,97,VALID,1.06545,
2005-01-26, 03:10:00,VALID,914.835,VALID,0,VALID,90.7379,VALID,-0.0849042,VALID,18.8529,VALID,107,VALID,1.72184,
2005-01-26, 03:11:00,VALID,914.837,VALID,0,VALID,90.3691,VALID,-0.0849042,VALID,18.8921,VALID,106,VALID,1.21559,
2005-01-26, 03:12:00,VALID,914.84,VALID,0,VALID,90.1199,VALID,-0.0679233,VALID,18.9408,VALID,110,VALID,1.21075,
2005-01-26, 03:13:00,VALID,914.828,VALID,0,VALID,89.9609,VALID,-0.0339617,VALID,18.99,VALID,99,VALID,1.22656,
2005-01-26, 03:14:00,VALID,914.821,VALID,0,VALID,89.7257,VALID,-0.0169808,VALID,19.0081,VALID,118,VALID,1.16562,
2005-01-26, 03:15:00,VALID,914.808,VALID,0,VALID,89.6278,VALID,-0.0339617,VALID,19.0471,VALID,132,VALID,1.1088,
2005-01-26, 03:16:00,VALID,914.811,VALID,0,VALID,89.6112,VALID,-0.0339617,VALID,19.0531,VALID,115,VALID,1.12784,
2005-01-26, 03:17:00,VALID,914.815,VALID,0,VALID,89.6214,VALID,-0.0509425,VALID,19.0568,VALID,119,VALID,0.619004,
2005-01-26, 03:18:00,VALID,914.805,VALID,0,VALID,89.6583,VALID,-0.0509425,VALID,19.0407,VALID,118,VALID,0.639695,
2005-01-26, 03:19:00,VALID,914.803,VALID,0,VALID,89.7282,VALID,0,VALID,19.0278,VALID,103,VALID,0.838542,
2005-01-26, 03:20:00,VALID,914.78,VALID,0,VALID,89.8452,VALID,-0.0169808,VALID,19.0047,VALID,126,VALID,0.948742,
2005-01-26, 03:21:00,VALID,914.758,VALID,0,VALID,89.9584,VALID,-0.0169808,VALID,18.9754,VALID,115,VALID,1.24237,
2005-01-26, 03:22:00,VALID,914.738,VALID,0,VALID,90.0576,VALID,-0.0169808,VALID,18.986,VALID,104,VALID,1.27058,
2005-01-26, 03:23:00,VALID,914.71,VALID,0,VALID,90.1873,VALID,-0.0679233,VALID,18.96,VALID,112,VALID,1.19746,
2005-01-26, 03:24:00,VALID,914.702,VALID,0,VALID,90.3221,VALID,-0.0679233,VALID,18.9339,VALID,124,VALID,1.0918,
2005-01-26, 03:25:00,VALID,914.707,VALID,0,VALID,90.3907,VALID,-0.0169808,VALID,18.9212,VALID,113,VALID,1.31704,
2005-01-26, 03:26:00,VALID,914.72,VALID,0,VALID,90.4022,VALID,-0.0509425,VALID,18.9175,VALID,118,VALID,1.55505,
2005-01-26, 03:27:00,VALID,914.726,VALID,0,VALID,90.4149,VALID,-0.0169808,VALID,18.9147,VALID,112,VALID,1.72129,
2005-01-26, 03:28:00,VALID,914.703,VALID,0,VALID,90.2292,VALID,-0.0509425,VALID,18.944,VALID,101,VALID,1.37652,
2005-01-26, 03:29:00,VALID,914.68,VALID,0,VALID,90.1466,VALID,-0.0509425,VALID,18.9597,VALID,106,VALID,1.47847,
2005-01-26, 03:30:00,VALID,914.646,VALID,0,VALID,90.2038,VALID,-0.0849042,VALID,18.9565,VALID,107,VALID,1.66279,
2005-01-26, 03:31:00,VALID,914.617,VALID,0,VALID,90.2165,VALID,-0.0169808,VALID,18.9535,VALID,96,VALID,1.53069,